This is the latest recevied weather packets stored in our database for station/object EA7OC-10. If no packets are shown the sender has not sent any weather packets the latest 10 day(s).
| Time | Temp. | Humidity | Pressure | Rain* | Wind** | Luminosity | Snow |
|---|---|---|---|---|---|---|---|
| 1788213167 | 27.78° C | 21% | 1017 hPa | - | - | - | - |
| 1788212267 | 28.33° C | 21% | 1016.8 hPa | - | - | - | - |
| 1788211367 | 28.89° C | 21% | 1016.8 hPa | - | - | - | - |
| 1788210467 | 29.44° C | 21% | 1016.6 hPa | - | - | - | - |
| 1788209566 | 30° C | 21% | 1016.4 hPa | - | - | - | - |
| 1788208666 | 30.56° C | 21% | 1016.1 hPa | - | - | - | - |
| 1788207766 | 31.11° C | 21% | 1015.8 hPa | - | - | - | - |
| 1788206866 | 31.67° C | 20% | 1015.7 hPa | - | - | - | - |
| 1788205966 | 31.67° C | 21% | 1015.4 hPa | - | - | - | - |
| 1788205066 | 32.22° C | 20% | 1015.1 hPa | - | - | - | - |
| 1788204166 | 32.78° C | 20% | 1015 hPa | - | - | - | - |
| 1788203266 | 34.44° C | 20% | 1014.9 hPa | - | - | - | - |
| 1788202366 | 35.56° C | 20% | 1014.7 hPa | - | - | - | - |
| 1788201465 | 37.78° C | 20% | 1014.7 hPa | - | - | - | - |
| 1788200565 | 41.11° C | 20% | 1014.7 hPa | - | - | - | - |
| 1788199665 | 42.22° C | 20% | 1014.8 hPa | - | - | - | - |
| 1788198765 | 42.78° C | 21% | 1014.8 hPa | - | - | - | - |
| 1788197865 | 43.89° C | 20% | 1014.8 hPa | - | - | - | - |
| 1788196965 | 44.44° C | 20% | 1014.8 hPa | - | - | - | - |
| 1788196065 | 45° C | 20% | 1014.8 hPa | - | - | - | - |
| 1788195165 | 45° C | 21% | 1015 hPa | - | - | - | - |
| 1788194264 | 45.56° C | 20% | 1014.9 hPa | - | - | - | - |
| 1788193364 | 46.11° C | 21% | 1015.1 hPa | - | - | - | - |
| 1788192464 | 45.56° C | 21% | 1015.1 hPa | - | - | - | - |
| 1788191564 | 45.56° C | 21% | 1015.2 hPa | - | - | - | - |
* Rain since midnight (hover to see other rain measurements)
** Current wind speed in m/s (hover to see current wind gust speed)